This is the latest recevied weather packets stored in our database for station/object OK2JCZ-6. If no packets are shown the sender has not sent any weather packets the latest 10 day(s).
| Time | Temp. | Humidity | Pressure | Rain* | Wind** | Luminosity | Snow |
|---|---|---|---|---|---|---|---|
| 1777595977 | 1.67° C | 53% | 1028.2 hPa | 0 mm | - | - | - |
| 1777595677 | 1.67° C | 53% | 1028.2 hPa | 0 mm | - | - | - |
| 1777594777 | 0.56° C | 52% | 1028.3 hPa | 0 mm | - | - | - |
| 1777594477 | 0.56° C | 52% | 1028.2 hPa | 0 mm | - | - | - |
| 1777594181 | 1.11° C | 53% | 1028.2 hPa | 0 mm | - | - | - |
| 1777593877 | 1.11° C | 51% | 1028.1 hPa | 0 mm | - | - | - |
| 1777593577 | 1.11° C | 52% | 1028.1 hPa | 0 mm | - | - | - |
| 1777593277 | 1.11° C | 53% | 1028.2 hPa | 0 mm | - | - | - |
| 1777592977 | 1.11° C | 53% | 1028.2 hPa | 0 mm | - | - | - |
| 1777592077 | 1.11° C | 50% | 1028.2 hPa | 0 mm | - | - | - |
| 1777591777 | 1.11° C | 50% | 1028.2 hPa | 0 mm | - | - | - |
| 1777591477 | 1.11° C | 50% | 1028.3 hPa | 0 mm | - | - | - |
| 1777590577 | 1.11° C | 50% | 1028.3 hPa | 0 mm | - | - | - |
| 1777590277 | 1.11° C | 49% | 1028.3 hPa | 0 mm | - | - | - |
| 1777589677 | 1.11° C | 52% | 1028.3 hPa | 0 mm | - | - | - |
| 1777589377 | 1.11° C | 50% | 1028.2 hPa | 0 mm | - | - | - |
| 1777589077 | 1.11° C | 51% | 1028.3 hPa | 0 mm | - | - | - |
| 1777588777 | 1.67° C | 50% | 1028.3 hPa | 0 mm | - | - | - |
| 1777587577 | 1.67° C | 48% | 1028.3 hPa | 0 mm | - | - | - |
| 1777587277 | 1.67° C | 49% | 1028.3 hPa | 0 mm | - | - | - |
| 1777586977 | 1.67° C | 48% | 1028.3 hPa | 0 mm | - | - | - |
| 1777586377 | 2.22° C | 50% | 1028.2 hPa | 0 mm | - | - | - |
| 1777585777 | 2.22° C | 49% | 1028.2 hPa | 0 mm | - | - | - |
| 1777585177 | 2.22° C | 49% | 1028.2 hPa | 0 mm | - | - | - |
| 1777584277 | 2.78° C | 47% | 1028.2 hPa | 0 mm | - | - | - |
* Rain latest hour (hover to see other rain measurements)
** Current wind speed in m/s (hover to see current wind gust speed)